Powrót do katalogu

STARLINK-4719

AktywnyŁącznośćVLEO
NORAD 53774·PAYLOAD·🇺🇸 United States

Wystrzelony Sep 11, 2022 z Cape Canaveral Space Force Station

Loading…

Następne Przeloty (najbliższe 24 godziny)

TLE

ŚwieżeSource: CelesTrak SupGP

Epoka: Sep 14, 2026, 22:22 UTC

1 53774C 22111B   26257.93243056 -.00017310  00000+0 -55670-3 0  2573
2 53774  53.1585 144.4574 0001542  85.8661 160.4511 15.31707641    14

Śledź STARLINK-4719 w czasie rzeczywistym z AllMySat

Download on the App Store